Regional Weather Roundup
Issued by NWS Glasgow, MT

Home | Current Version | Previous Version | Text Only | Print | Product List | Glossary On
Versions: 1 2 3 4 5 6 7 8 9 10 11 12 13 14 15 16 17 18 19 20 21 22 23 24 25 26 27 28 29 30 31 32 33 34 35 36 37 38 39 40 41 42 43 44 45 46 47 48 49 50
000
ASUS45 KGGW 050315
RWRGGW
HOURLY REGIONAL WEATHER ROUNDUP FOR NORTHEAST MONTANA
NATIONAL WEATHER SERVICE GLASGOW MONTANA
900 PM MDT SAT JUL 04 2015

NOTE: "FAIR" INDICATES FEW OR NO CLOUDS BELOW 12,000 FEET WITH NO
SIGNIFICANT WEATHER AND/OR OBSTRUCTIONS TO VISISBILITY.

NORTHEAST MONTANA


CITY           SKY/WX    TMP DP  RH WIND       PRES   REMARKS
GLASGOW        CLEAR     76  51  41 NE13      29.79R
PLENTYWOOD       N/A     71  56  58 N12G20      N/A
WOLF POINT     CLEAR     77  58  51 NE9       29.79R
JORDAN           N/A     80  59  48 NE16      29.78R
WINNETT          N/A     82  55  39 NE13G23     N/A
SIDNEY         CLEAR     75  64  69 N10       29.77S
GLENDIVE       CLEAR     75  61  60 N8        29.78R
MALTA            N/A     77  51  40 NE12G20     N/A
SCOBEY           N/A     70  52  52 N7        29.86R

FORT PECK REPORTS


CITY           SKY/WX    TMP DP  RH WIND       PRES   REMARKS
FORT PECK        N/A     79  56  45 N16         N/A
THE PINES        N/A     76  56  49 NE14G23     N/A

SOUTHEAST MONTANA


CITY           SKY/WX    TMP DP  RH WIND       PRES   REMARKS
BILLINGS       MOCLDY    86  44  23 NE12      29.79R
MILES CITY     CLEAR     80  55  42 SE6       29.73R
BAKER          PTCLDY    73  58  59 SE5       29.79R
LIVINGSTON     MOCLDY    78  46  32 E10       29.85R

CENTRAL MONTANA


CITY           SKY/WX    TMP DP  RH WIND       PRES   REMARKS
HAVRE          CLEAR     78  52  40 E15       29.73F
LEWISTOWN      PTCLDY    78  55  44 E13       29.85R
GREAT FALLS    PTCLDY    80  48  32 NE7       29.77S
CUT BANK       PTCLDY    71  49  45 NE24G30   29.86R
HELENA         MOCLDY    85  51  31 N7        29.77R
BUTTE          CLOUDY    84  34  16 W5        29.92R
BOZEMAN        MOCLDY    77  49  37 SE9       29.82S

WESTERN MONTANA


CITY           SKY/WX    TMP DP  RH WIND       PRES   REMARKS
MISSOULA       MOCLDY    90  35  14 NW12      29.76R
KALISPELL      NOT AVBL

NORTH DAKOTA


CITY           SKY/WX    TMP DP  RH WIND       PRES   REMARKS
WILLISTON      CLEAR     75  68  78 N12       29.77R
DICKINSON      PTCLDY    75  65  70 S6        29.74S
MINOT          LGT RAIN  67  62  84 N12       29.73S
BISMARCK       CLOUDY    79  71  76 E5        29.74R

SOUTHERN SASKATCHEWAN


CITY           SKY/WX    TMP DP  RH WIND       PRES   REMARKS
REGINA         MOCLDY    70  59  68 N8        29.83R SMOKE
ESTEVAN        MOCLDY    68  61  77 NE6       29.81R
SWIFT CURRENT  CLOUDY    68  46  45 NE10      29.87R HAZE




USA.gov is the U.S. government's official web portal to all federal, state and local government web resources and services.